Temp
17 17 17 17 18 18 18 17 17 19 20 20 20 20 19 19 18 18 19 19 19 19 19 18 18 18 18 18 18 18 18 18 17 17 17 17 17 17 17 17 17 17
17 18 17 18 18 18 18 18 19 20 20 20 20 20 19 19 19 19 19 19 19 19 18 18 18 18 18 18 18 18 18 18 17 18 17 17 17 17 17 17 17 17
17 17 17 18 18 18 18 19 20 20 20 20 20 20 19 19 19 19 18 19 19 19 18 18 18 18 18 18 18 18 18 18 18 18 18 17 18 17 17 17 18 18
17 17 18 17 17 18 19 19 19 19 20 19 19 19 19 19 19 19 18 19 19 18 18 18 18 18 19 18 18 18 18 18 18 18 18 18 18 18 17 17 17 17
17 18 17 16 17 18 19 19 19 19 19 19 19 19 19 19 19 19 19 19 19 18 18 18 18 18 19 18 18 18 18 18 18 18 18 18 18 18 17 17 17 17
17 17 17 16 17 18 18 19 19 19 19 19 19 19 19 19 19 19 19 19 19 19 19 18 18 18 19 19 18 18 18 18 18 18 18 18 18 18 18 18 18 17
17 17 17 17 18 18 19 19 19 19 19 19 19 19 19 19 19 19 19 19 19 19 19 19 18 18 19 19 19 18 18 19 18 18 19 19 18 18 18 18 18 18
17 17 17 18 19 19 19 19 18 19 19 19 19 19 19 19 19 19 19 19 19 19 19 19 19 19 19 19 19 19 19 19 19 19 20 19 19 19 19 18 18 18
17 17 18 19 19 19 19 18 18 18 19 19 19 19 19 19 19 19 19 19 19 19 19 19 19 19 19 19 19 19 19 19 19 20 20 19 19 19 19 18 18 19
17 17 18 19 19 19 19 18 18 18 19 19 19 19 19 19 19 19 19 19 19 19 19 19 19 19 19 19 19 19 19 19 19 19 19 19 20 20 20 19 18 18
17 17 18 18 19 19 18 18 18 18 19 19 19 19 19 19 19 19 19 19 19 19 19 19 19 19 19 19 19 19 19 19 19 19 19 19 19 19 20 19 18 18
17 16 17 18 18 18 18 18 18 18 18 19 19 18 18 18 19 19 19 19 19 19 19 19 19 19 19 19 19 19 19 19 19 19 19 19 19 19 19 19 18 18
16 16 17 18 18 18 18 18 18 18 18 19 19 18 18 19 19 19 19 19 19 19 19 19 19 19 19 19 19 19 19 19 19 19 19 19 19 19 19 19 18 18
16 17 17 17 17 17 18 18 18 18 18 18 19 18 18 19 19 18 19 19 19 19 19 19 19 18 18 18 19 19 19 19 18 19 19 19 19 19 19 19 18 18
16 17 17 17 17 17 17 18 17 18 18 18 18 18 18 18 18 18 18 18 18 18 18 18 17 17 17 17 18 18 18 18 18 18 19 19 19 19 19 19 19 18
15 16 16 16 17 17 17 17 17 18 18 18 18 18 18 18 18 18 18 18 18 18 17 17 16 16 17 17 17 17 18 18 18 18 19 19 19 19 19 19 19 18
15 15 15 16 17 17 17 17 17 17 17 17 16 16 16 17 17 18 18 18 17 17 16 16 16 16 17 17 17 17 17 17 18 18 19 19 19 19 19 19 19 18
15 14 14 15 15 15 15 15 15 15 15 15 15 15 15 15 15 16 16 15 15 16 16 16 16 16 16 16 16 17 17 17 18 18 18 19 19 19 19 19 19 18
15 14 14 13 13 13 14 14 14 14 14 15 15 15 14 14 14 14 14 14 14 15 15 15 15 15 16 16 16 16 16 17 17 18 18 19 19 19 19 19 19 19
14 14 13 12 12 13 13 13 14 14 14 14 14 13 13 13 14 13 13 13 14 14 14 14 14 14 15 16 16 16 16 17 17 17 18 18 18 18 19 19 19 19
14 13 12 12 12 12 12 12 12 13 13 12 12 13 13 13 13 13 13 13 13 14 14 14 13 14 14 15 15 16 16 16 16 17 17 18 18 18 18 18 18 18
12 11 11 11 11 11 11 11 12 12 12 12 12 12 12 12 12 12 12 12 12 13 13 13 13 13 14 14 15 15 16 16 16 16 17 17 17 17 17 17 17 17
10 10 10 10 10 10 10 10 11 11 11 12 12 11 11 11 11 11 12 12 12 12 12 12 13 13 14 14 14 15 15 16 16 17 17 17 17 17 17 17 17 17
9 9 9 9 9 9 9 10 10 10 10 11 11 11 11 11 11 11 11 11 11 11 11 12 13 13 13 14 14 14 15 15 16 17 17 17 17 17 17 17 16 16
9 9 9 9 9 9 9 9 10 10 10 11 11 11 11 11 11 11 11 10 10 11 10 10 11 12 12 13 13 14 14 14 15 16 16 16 16 17 17 16 16 15
9 10 9 9 9 10 10 10 10 10 10 10 10 10 10 11 11 11 11 10 10 10 10 10 10 11 12 12 13 13 13 13 13 13 14 14 14 16 16 16 16 14
Height
788 792 796 798 800 801 803 808 810 808 807 808 810 811 812 813 814 815 816 817 818 819 819 820 821 822 823 824 826 827 828 829 830 831 832 832 834 835 836 837 838 838
785 789 795 798 799 801 804 806 807 806 807 809 809 811 812 813 814 815 816 817 818 819 819 820 821 822 823 824 825 826 827 829 830 831 831 832 833 834 835 836 837 838
785 787 792 796 798 800 802 804 806 806 808 809 810 811 812 813 814 815 816 817 818 819 820 821 822 823 823 824 825 825 826 828 829 830 831 832 833 834 834 835 836 837
785 787 790 795 798 800 801 803 805 806 807 809 810 811 812 813 814 815 816 817 818 819 820 821 822 823 824 824 824 825 826 827 828 829 830 831 832 833 834 835 835 836
784 787 791 796 799 799 800 802 804 806 808 809 810 811 812 813 814 815 816 817 818 819 820 822 823 823 824 824 825 825 826 827 828 829 830 830 831 832 833 834 834 835
784 788 793 797 798 798 800 802 804 806 808 809 810 812 812 813 814 815 816 817 818 819 820 822 823 824 824 825 825 826 826 827 828 828 829 830 831 832 832 833 834 834
783 789 794 796 796 797 799 801 804 806 808 809 810 812 813 813 814 815 816 817 818 819 820 821 823 824 824 825 825 826 826 827 827 828 829 830 831 832 832 832 833 834
783 788 792 794 795 797 799 801 804 806 808 809 811 812 813 814 814 815 816 817 818 819 820 822 823 823 824 825 825 826 826 827 827 828 828 830 831 832 832 832 832 833
784 787 790 792 795 797 799 802 804 806 808 809 811 812 813 814 815 816 817 818 819 820 821 822 823 824 824 825 825 826 826 827 827 827 828 830 831 831 832 832 832 833
784 787 789 792 795 798 800 803 805 807 809 809 811 812 813 814 815 816 817 818 819 820 821 822 823 824 825 825 826 826 826 827 827 828 828 829 830 830 831 832 832 832
785 787 790 793 796 798 801 804 806 808 809 810 812 813 814 815 816 816 817 818 820 821 822 823 823 824 825 826 826 827 827 827 827 828 828 829 830 830 831 831 832 832
785 789 791 793 797 800 802 805 807 808 810 811 812 814 815 816 816 817 818 819 820 821 822 823 824 825 826 826 827 827 827 827 827 828 828 829 830 831 831 832 832 832
787 790 792 794 798 800 804 806 807 809 811 812 813 815 816 817 817 818 819 820 821 822 823 824 824 825 826 826 827 827 828 828 828 829 829 830 830 831 831 832 832 832
788 790 792 796 799 802 805 807 808 810 812 813 814 816 816 817 818 819 820 821 822 822 823 824 825 826 826 826 827 827 828 829 829 829 830 830 831 831 832 832 832 832
788 790 794 797 801 803 805 807 809 811 812 814 816 817 817 818 818 820 820 821 822 823 824 825 825 825 826 826 827 827 828 829 829 830 830 831 831 832 832 833 832 833
790 794 797 799 802 804 806 808 810 811 813 815 817 817 818 819 820 821 821 822 823 824 824 825 825 826 827 827 828 828 828 829 829 830 830 831 832 832 832 833 833 833
792 797 800 802 804 806 807 809 811 813 814 816 817 818 819 819 820 821 822 823 823 824 825 825 826 828 828 828 829 829 829 828 829 830 831 832 832 832 832 833 833 833
794 798 800 802 804 806 807 810 812 813 815 816 817 818 819 820 821 822 823 823 824 824 825 826 827 828 829 830 830 830 830 829 830 831 831 832 832 832 832 833 833 834
796 799 800 802 804 806 807 809 810 813 815 817 818 819 820 821 822 823 824 824 825 826 826 827 828 828 829 830 830 831 831 831 830 831 832 832 832 832 832 832 833 834
799 801 803 804 805 807 808 809 811 814 817 820 821 821 821 823 824 825 825 826 826 827 827 828 829 829 829 830 830 831 832 832 832 832 832 832 832 832 833 833 833 834
801 803 805 806 807 808 810 812 814 816 819 821 822 823 823 824 826 826 826 827 827 827 828 829 829 830 830 830 831 832 832 832 833 833 833 833 833 833 834 834 834 834
802 804 805 806 808 810 811 814 816 818 820 822 823 824 824 825 826 827 827 828 828 828 829 830 830 830 830 831 832 833 833 833 833 834 833 833 833 834 834 834 835 835
803 804 805 806 809 811 813 815 818 820 821 822 823 824 825 825 826 827 828 829 830 830 831 831 830 831 831 831 832 833 833 833 833 833 833 833 833 834 834 834 834 835
806 807 808 810 812 813 814 817 819 820 822 823 824 825 825 826 827 828 829 830 831 831 831 831 831 831 832 832 832 833 833 833 833 833 833 833 833 833 833 833 833 834
811 812 812 814 815 816 817 819 821 822 823 824 825 826 826 827 829 829 830 831 831 832 832 832 832 832 832 833 832 833 833 833 833 833 833 834 834 833 833 833 833 833
815 816 817 818 819 820 820 822 823 824 824 825 826 827 828 829 830 831 831 832 832 832 833 833 833 833 833 833 833 833 833 833 834 834 834 834 834 834 834 833 833 832
Wind_Speed
26 24 17 19 21 17 17 19 17 13 11 10 10 9 9 9 9 8 7 7 7 7 6 7 7 6 7 7 7 7 7 7 7 8 8 8 8 7 9 10 9 8
29 27 20 20 20 18 18 18 14 12 11 10 9 9 9 9 9 8 7 7 7 7 7 7 7 6 6 7 7 7 7 8 7 7 7 8 8 8 10 10 9 8
29 29 23 20 20 19 17 15 13 11 11 10 10 10 10 10 10 8 7 7 7 7 7 7 6 6 6 7 7 7 7 8 8 7 7 8 8 8 9 9 8 8
27 26 24 20 19 18 16 15 14 12 11 11 11 11 11 11 10 9 8 7 7 7 7 6 6 5 5 6 7 7 7 7 7 7 8 9 8 8 9 10 9 9
26 26 23 20 18 18 17 15 14 13 12 11 11 11 11 11 10 9 8 8 8 8 7 6 5 5 5 5 6 6 7 6 7 8 8 7 7 8 9 10 11 10
25 25 23 22 19 17 16 15 14 13 13 12 11 11 11 11 10 9 9 9 9 9 8 7 5 4 4 5 5 6 6 6 6 6 6 5 6 7 7 8 9 9
23 24 24 21 19 17 16 16 15 13 13 12 11 10 10 10 9 10 9 8 8 8 8 8 6 4 4 4 6 6 6 6 6 6 6 5 6 6 6 7 8 9
22 23 22 19 18 17 16 16 15 14 13 12 11 10 10 9 9 9 9 8 8 8 8 8 7 5 4 4 5 6 6 6 6 6 6 6 6 6 6 7 8 9
21 21 19 18 19 18 16 16 15 14 14 12 12 11 9 9 9 9 8 8 8 7 7 8 8 6 4 4 5 5 5 5 5 5 5 5 6 6 7 7 8 9
19 19 18 19 19 18 17 17 15 14 14 13 12 11 9 9 8 8 8 7 7 7 7 8 8 7 6 5 4 5 5 5 5 5 5 5 4 4 5 7 9 9
17 16 18 20 18 17 18 17 15 13 13 12 11 10 9 8 8 8 8 8 7 7 7 8 8 7 6 6 5 4 4 5 6 5 6 5 3 2 2 5 8 9
18 14 15 18 18 17 17 16 14 13 12 12 11 10 9 8 9 9 8 8 7 6 7 7 6 6 6 5 5 5 4 5 6 6 6 5 4 3 2 5 8 9
17 16 15 16 17 17 15 14 14 12 12 12 10 10 9 9 9 9 8 7 7 6 6 6 5 4 4 4 5 6 5 5 5 6 6 5 5 4 2 4 7 8
13 17 18 16 15 17 15 14 14 13 12 12 10 10 10 9 9 9 7 7 7 6 6 6 4 3 4 3 3 5 5 6 6 7 7 6 5 4 2 3 5 6
15 15 16 15 14 16 16 15 15 14 13 12 11 10 10 10 10 9 8 7 7 6 5 5 4 4 5 4 2 3 4 5 6 7 8 8 7 6 4 3 4 5
19 15 15 17 17 17 16 15 15 15 14 13 12 11 10 10 9 9 8 7 7 7 6 4 2 2 5 4 3 3 1 3 6 7 7 8 8 7 6 5 5 5
20 17 15 15 16 17 17 15 15 15 15 13 12 12 10 9 8 8 7 7 8 8 6 5 3 3 5 5 4 3 0 2 3 6 7 7 8 8 7 7 6 6
20 17 15 15 15 16 16 15 14 14 13 13 13 12 10 9 9 8 7 8 8 8 7 6 6 6 7 6 5 5 2 1 1 4 6 7 8 8 8 8 8 7
20 17 15 15 16 16 17 17 17 14 10 8 8 8 8 8 7 7 7 7 7 7 7 6 6 6 7 8 7 6 5 4 4 4 5 7 7 7 7 7 9 8
20 17 15 16 17 18 19 18 18 15 8 5 5 6 7 8 8 8 8 8 8 8 8 6 6 5 5 6 7 7 7 7 4 4 4 5 5 5 5 5 6 7
16 15 15 17 17 18 18 16 15 14 12 10 8 8 9 10 9 9 9 9 9 8 8 7 7 6 5 4 4 4 6 7 4 3 4 4 3 4 4 3 4 4
15 15 17 18 17 17 18 17 16 14 12 12 10 9 11 11 10 10 10 8 8 7 7 8 7 6 5 5 4 4 4 3 4 4 5 5 5 5 5 5 5 5
17 18 19 20 19 19 19 18 16 13 11 10 10 11 12 12 11 11 10 9 8 7 6 6 7 6 5 4 4 4 4 1 2 4 4 3 4 4 5 6 6 6
20 20 20 20 19 19 18 17 15 13 12 11 11 12 13 12 11 10 9 8 8 8 6 4 4 5 3 3 2 2 3 2 4 3 2 2 2 4 4 4 6 7
19 18 19 18 17 17 17 17 15 14 13 11 10 11 12 10 8 7 7 6 6 7 6 3 2 2 2 1 1 0 2 1 5 6 3 3 4 4 3 2 4 6
16 16 16 15 13 12 13 13 12 11 10 10 9 9 9 8 5 5 6 5 4 4 3 2 2 3 4 3 3 3 1 0 3 5 4 5 6 6 5 4 4 5
Wind_Direction
174 176 175 175 177 172 178 195 197 180 165 166 165 163 163 159 162 165 164 168 172 168 162 164 165 159 160 164 168 173 175 181 191 201 209 207 204 204 206 209 207 206
170 174 176 176 173 173 181 186 180 166 164 165 159 160 159 156 161 163 162 168 170 167 161 161 164 165 173 172 171 176 175 179 189 195 202 202 201 207 209 209 209 209
168 172 174 176 174 172 173 171 168 164 159 158 159 158 155 154 159 160 163 170 168 167 165 164 165 168 177 178 177 180 181 185 188 190 198 198 197 204 208 208 209 214
169 171 171 175 174 168 164 163 163 158 155 158 159 158 156 154 155 155 158 161 160 161 163 167 169 167 170 175 178 180 182 187 186 187 197 199 199 204 204 208 211 213
169 172 173 178 175 164 160 160 157 156 159 160 158 158 156 154 154 155 152 152 155 157 161 167 169 169 169 169 175 179 179 185 188 192 199 197 201 206 205 208 209 206
167 172 179 183 175 163 159 156 155 160 161 159 159 158 157 156 157 158 155 155 158 159 166 170 168 172 171 162 167 173 175 184 189 196 201 194 198 210 208 205 202 200
165 174 182 182 173 164 159 155 157 163 161 158 158 157 158 159 158 157 159 160 162 164 169 172 172 175 170 163 164 164 170 180 183 191 197 189 193 208 211 206 201 198
168 176 178 174 168 164 159 157 160 162 159 157 157 156 157 160 156 155 160 163 166 168 169 174 179 177 175 175 164 159 167 174 177 186 188 180 186 200 203 204 202 198
166 171 170 165 164 161 158 159 162 163 161 158 157 157 158 159 154 154 160 165 170 171 169 176 180 171 177 185 169 171 177 171 172 178 172 170 184 196 197 200 204 200
161 162 162 161 160 159 160 163 164 163 161 159 157 156 157 156 152 155 161 163 170 174 170 177 178 169 178 187 173 182 186 174 172 170 166 176 191 201 193 196 205 203
152 155 160 160 158 158 161 163 163 162 161 159 156 155 153 152 152 155 158 158 166 171 167 174 177 171 180 187 175 185 193 182 180 174 173 179 183 206 199 194 207 206
151 155 157 155 156 159 161 163 162 160 159 158 154 154 151 151 151 149 150 155 160 162 161 167 172 171 181 186 179 188 197 190 185 180 181 182 180 197 193 186 208 211
157 159 154 148 153 158 158 162 161 157 159 159 153 151 151 151 147 144 149 156 156 155 154 155 159 167 176 188 193 194 194 192 190 186 187 186 185 189 154 171 207 216
154 156 153 146 151 157 157 160 160 157 162 160 150 147 152 150 144 143 147 147 147 148 146 143 139 133 140 165 196 191 190 195 193 194 196 192 191 190 164 166 200 212
136 147 157 152 153 157 158 161 160 159 160 157 151 148 144 139 137 138 138 139 144 145 135 130 108 102 131 129 98 132 186 206 200 204 208 202 202 198 186 183 185 191
123 135 161 169 170 164 158 157 156 155 154 151 148 141 131 131 135 138 139 140 139 132 133 143 106 114 163 163 125 125 182 217 198 207 214 209 212 209 199 200 181 169
125 129 140 153 161 156 147 146 146 144 143 138 130 121 116 116 121 127 127 122 126 132 147 172 174 164 179 186 189 191 354 31 181 207 217 213 215 213 204 204 187 162
133 129 120 117 126 130 129 130 125 118 119 121 122 121 116 105 103 106 102 106 130 149 159 165 166 172 184 192 202 212 215 65 199 214 213 214 217 215 209 205 197 178
130 130 125 119 119 122 126 126 119 111 105 107 124 132 115 99 104 111 114 125 141 145 142 144 153 166 184 197 205 213 209 216 263 258 216 213 216 213 213 207 202 199
128 130 127 123 124 127 128 127 126 128 122 100 121 133 114 106 112 115 124 140 143 137 134 130 126 134 162 192 203 214 212 214 258 288 232 221 217 213 220 218 211 213
123 123 115 112 115 121 124 124 125 128 125 114 112 112 111 115 116 109 114 128 134 135 136 125 115 117 124 141 171 203 206 205 227 263 235 229 223 217 226 230 234 242
103 103 100 101 104 109 114 115 113 113 116 116 110 103 107 112 111 104 102 107 113 118 124 122 112 113 119 121 137 152 155 183 228 233 226 223 214 211 222 228 232 238
97 99 100 103 105 107 109 110 110 106 103 105 108 110 111 108 105 103 99 97 100 101 109 120 112 110 119 122 134 155 146 88 277 242 226 233 219 212 227 229 221 225
92 97 100 103 105 108 110 113 115 111 103 101 107 117 119 112 107 110 107 106 112 110 102 106 108 103 109 116 121 161 151 66 351 304 240 241 245 234 237 230 221 231
79 85 93 96 98 102 108 114 116 115 113 108 107 118 124 120 113 112 109 108 121 121 106 88 82 69 49 58 45 351 165 91 3 353 354 349 321 283 273 255 230 240
72 77 85 88 89 92 100 105 108 110 112 108 103 111 121 121 116 113 110 103 104 115 105 52 2 359 355 343 339 342 303 246 349 346 343 346 336 311 301 290 234 212